• In Lithuania
  • List of Countries
  • For 7 days
  • Water Temperature
  • Satellite Maps
  • Weather Map
  • Weather Widgets
  • user-avatar
    Login

    Hourly Weather Maracay

    Today, 21 October, Sunday

    Time Temperature Precipitation Wind Pressure Humidity
    00:00 +23°C° 0.5 mm 1 mps 709 mmHg 95%
    01:00 +23°C° 0 mm 1 mps 708 mmHg 95%
    02:00 +23°C° 0.2 mm 1 mps 708 mmHg 95%
    03:00 +23°C° 0.2 mm 1 mps 708 mmHg 96%
    04:00 +23°C° 0.2 mm 1 mps 708 mmHg 96%
    05:00 +24°C° 0.3 mm 1 mps 709 mmHg 93%
    06:00 +24°C° 0.3 mm 1 mps 709 mmHg 91%
    07:00 +25°C° 0.3 mm 1 mps 709 mmHg 89%
    08:00 +26°C° 0.4 mm 1 mps 710 mmHg 85%
    09:00 +28°C° 0.4 mm 1 mps 710 mmHg 81%
    10:00 +29°C° 0.4 mm 1 mps 710 mmHg 78%
    11:00 +28°C° 1.6 mm 1 mps 710 mmHg 81%
    12:00 +28°C° 1.6 mm 1 mps 709 mmHg 83%
    13:00 +28°C° 1.6 mm 2 mps 708 mmHg 86%
    14:00 +27°C° 1.3 mm 2 mps 708 mmHg 88%
    15:00 +27°C° 1.3 mm 2 mps 707 mmHg 90%
    16:00 +26°C° 1.3 mm 2 mps 707 mmHg 92%
    17:00 +25°C° 0.5 mm 1 mps 707 mmHg 93%
    18:00 +25°C° 0.5 mm 1 mps 708 mmHg 93%
    19:00 +24°C° 0.5 mm 1 mps 708 mmHg 94%
    20:00 +24°C° 0.2 mm 1 mps 709 mmHg 94%
    21:00 +24°C° 0.2 mm 1 mps 709 mmHg 94%
    22:00 +24°C° 0.2 mm 1 mps 709 mmHg 94%
    23:00 +24°C° 0.5 mm 1 mps 709 mmHg 94%

    Tomorrow, 22 October, Monday

    Time Temperature Precipitation Wind Pressure Humidity
    00:00 +23°C° 0.5 mm 1 mps 709 mmHg 94%
    01:00 +23°C° 0.5 mm 1 mps 708 mmHg 94%
    02:00 +23°C° 0.5 mm 1 mps 708 mmHg 94%
    03:00 +23°C° 0.5 mm 1 mps 708 mmHg 95%
    04:00 +23°C° 0.5 mm 1 mps 708 mmHg 95%
    05:00 +24°C° 0.1 mm 1 mps 709 mmHg 93%
    06:00 +24°C° 0.1 mm 1 mps 709 mmHg 91%
    07:00 +25°C° 0.1 mm 1 mps 710 mmHg 90%
    08:00 +26°C° 0.9 mm 1 mps 710 mmHg 88%
    09:00 +27°C° 0.9 mm 1 mps 710 mmHg 86%
    10:00 +28°C° 0.9 mm 1 mps 711 mmHg 85%
    11:00 +28°C° 1.1 mm 1 mps 710 mmHg 84%
    12:00 +28°C° 1.1 mm 1 mps 709 mmHg 83%
    13:00 +28°C° 1.1 mm 1 mps 708 mmHg 82%
    14:00 +27°C° 1.4 mm 1 mps 708 mmHg 85%
    15:00 +27°C° 1.4 mm 1 mps 708 mmHg 88%
    16:00 +26°C° 1.4 mm 1 mps 708 mmHg 91%
    17:00 +25°C° 1.4 mm 1 mps 708 mmHg 92%
    18:00 +25°C° 1.4 mm 1 mps 709 mmHg 94%
    19:00 +22°C° 1.4 mm 0 mps 709 mmHg 95%
    20:00 +22°C° 0.8 mm 0 mps 710 mmHg 95%
    21:00 +22°C° 0.8 mm 0 mps 710 mmHg 94%
    22:00 +22°C° 0.8 mm 0 mps 710 mmHg 94%
    23:00 +21°C° 0.4 mm 0 mps 710 mmHg 94%

    Day after tomorrow, 23 October, Tuesday

    Time Temperature Precipitation Wind Pressure Humidity
    00:00 +21°C° 0.4 mm 0 mps 709 mmHg 94%
    01:00 +21°C° 0.4 mm 0 mps 709 mmHg 94%
    02:00 +21°C° 0.4 mm 0 mps 709 mmHg 95%
    03:00 +21°C° 0.4 mm 0 mps 709 mmHg 95%
    04:00 +21°C° 0.4 mm 0 mps 709 mmHg 95%
    05:00 +22°C° 0.1 mm 0 mps 709 mmHg 93%
    06:00 +22°C° 0.1 mm 0 mps 710 mmHg 91%
    07:00 +23°C° 0.1 mm 0 mps 710 mmHg 90%
    08:00 +26°C° 0.3 mm 1 mps 711 mmHg 86%
    09:00 +27°C° 0.3 mm 1 mps 711 mmHg 83%
    10:00 +28°C° 0.3 mm 1 mps 711 mmHg 79%
    11:00 +28°C° 1 mm 1 mps 710 mmHg 81%
    12:00 +28°C° 1 mm 1 mps 710 mmHg 83%
    13:00 +28°C° 1 mm 1 mps 709 mmHg 85%
    14:00 +27°C° 1.5 mm 1 mps 708 mmHg 88%
    15:00 +27°C° 1.5 mm 1 mps 708 mmHg 90%
    16:00 +26°C° 1.5 mm 1 mps 708 mmHg 92%
    17:00 +26°C° 1.6 mm 1 mps 708 mmHg 92%
    18:00 +25°C° 1.6 mm 1 mps 709 mmHg 93%
    19:00 +24°C° 1.6 mm 1 mps 709 mmHg 94%
    20:00 +24°C° 1.3 mm 1 mps 710 mmHg 94%
    21:00 +24°C° 1.3 mm 1 mps 710 mmHg 94%
    22:00 +24°C° 1.3 mm 1 mps 710 mmHg 94%
    23:00 +24°C° 0.3 mm 1 mps 710 mmHg 94%

    24 October, Wednesday

    Time Temperature Precipitation Wind Pressure Humidity
    00:00 +23°C° 0.3 mm 1 mps 709 mmHg 94%
    01:00 +23°C° 0.3 mm 1 mps 709 mmHg 93%
    02:00 +23°C° 0.1 mm 1 mps 709 mmHg 93%
    03:00 +23°C° 0.1 mm 1 mps 709 mmHg 93%
    04:00 +23°C° 0.1 mm 1 mps 709 mmHg 93%
    05:00 +24°C° 0 mm 1 mps 710 mmHg 91%
    06:00 +24°C° 0 mm 1 mps 710 mmHg 90%
    07:00 +25°C° 0 mm 1 mps 711 mmHg 88%
    08:00 +26°C° 0.1 mm 1 mps 711 mmHg 81%
    09:00 +28°C° 0.1 mm 1 mps 711 mmHg 75%
    10:00 +30°C° 0.1 mm 1 mps 711 mmHg 68%
    11:00 +29°C° 1.2 mm 1 mps 710 mmHg 73%
    12:00 +29°C° 1.2 mm 2 mps 710 mmHg 78%
    13:00 +28°C° 1.2 mm 2 mps 709 mmHg 84%
    14:00 +28°C° 1.3 mm 1 mps 708 mmHg 85%
    15:00 +28°C° 1.3 mm 1 mps 708 mmHg 87%
    16:00 +27°C° 1.3 mm 1 mps 708 mmHg 89%
    17:00 +26°C° 0.5 mm 1 mps 708 mmHg 90%
    18:00 +25°C° 0.5 mm 1 mps 709 mmHg 91%
    19:00 +25°C° 0.5 mm 1 mps 709 mmHg 92%
    20:00 +24°C° 0.2 mm 1 mps 709 mmHg 92%
    21:00 +24°C° 0.2 mm 1 mps 710 mmHg 92%
    22:00 +24°C° 0.2 mm 1 mps 710 mmHg 92%
    23:00 +24°C° 0.1 mm 1 mps 710 mmHg 92%

    25 October, Thursday

    Time Temperature Precipitation Wind Pressure Humidity
    00:00 +23°C° 0.1 mm 1 mps 709 mmHg 92%
    01:00 +23°C° 0.1 mm 1 mps 709 mmHg 92%
    02:00 +23°C° 0 mm 1 mps 709 mmHg 91%
    03:00 +23°C° 0 mm 1 mps 709 mmHg 90%
    04:00 +23°C° 0 mm 1 mps 709 mmHg 89%
    05:00 +24°C° 0 mm 1 mps 709 mmHg 87%
    06:00 +24°C° 0 mm 1 mps 710 mmHg 85%
    07:00 +25°C° 0 mm 1 mps 711 mmHg 83%
    08:00 +26°C° 0 mm 1 mps 711 mmHg 79%
    09:00 +27°C° 0 mm 1 mps 711 mmHg 75%
    10:00 +28°C° 0 mm 1 mps 711 mmHg 71%
    11:00 +28°C° 0.7 mm 1 mps 710 mmHg 74%
    12:00 +28°C° 0.7 mm 2 mps 709 mmHg 77%
    13:00 +28°C° 0.7 mm 2 mps 709 mmHg 81%
    14:00 +28°C° 1.3 mm 2 mps 708 mmHg 82%
    15:00 +28°C° 1.3 mm 2 mps 708 mmHg 84%
    16:00 +27°C° 1.3 mm 2 mps 708 mmHg 86%
    17:00 +26°C° 0.3 mm 1 mps 708 mmHg 88%
    18:00 +25°C° 0.3 mm 1 mps 709 mmHg 89%
    19:00 +24°C° 0.3 mm 1 mps 709 mmHg 91%
    20:00 +24°C° 0.1 mm 1 mps 709 mmHg 91%
    21:00 +24°C° 0.1 mm 1 mps 710 mmHg 91%
    22:00 +24°C° 0.1 mm 1 mps 710 mmHg 91%
    23:00 +23°C° 0 mm 1 mps 709 mmHg 90%

    26 October, Friday

    Time Temperature Precipitation Wind Pressure Humidity
    00:00 +23°C° 0 mm 1 mps 709 mmHg 89%
    01:00 +23°C° 0 mm 1 mps 709 mmHg 88%
    02:00 +23°C° 0.1 mm 1 mps 709 mmHg 88%
    03:00 +23°C° 0.1 mm 1 mps 709 mmHg 87%
    04:00 +23°C° 0.1 mm 1 mps 709 mmHg 87%
    05:00 +24°C° 0.2 mm 1 mps 710 mmHg 86%
    06:00 +24°C° 0.2 mm 1 mps 710 mmHg 85%
    07:00 +25°C° 0.2 mm 1 mps 711 mmHg 84%
    08:00 +27°C° 0 mm 1 mps 711 mmHg 78%
    09:00 +29°C° 0 mm 1 mps 711 mmHg 72%
    10:00 +30°C° 0 mm 1 mps 712 mmHg 66%
    11:00 +30°C° 0.1 mm 2 mps 711 mmHg 66%
    12:00 +30°C° 0.1 mm 2 mps 710 mmHg 67%
    13:00 +30°C° 0.1 mm 2 mps 709 mmHg 68%
    14:00 +30°C° 0.3 mm 2 mps 709 mmHg 72%
    15:00 +29°C° 0.3 mm 2 mps 709 mmHg 75%
    16:00 +28°C° 0.3 mm 2 mps 709 mmHg 79%
    17:00 +27°C° 0 mm 1 mps 709 mmHg 83%
    18:00 +26°C° 0 mm 1 mps 710 mmHg 87%
    19:00 +25°C° 0 mm 1 mps 710 mmHg 91%
    20:00 +24°C° 0 mm 1 mps 710 mmHg 90%
    21:00 +24°C° 0 mm 1 mps 710 mmHg 90%
    22:00 +24°C° 0 mm 1 mps 710 mmHg 89%
    23:00 +24°C° 0 mm 1 mps 710 mmHg 88%
    Show more